Location: Plymouth
(43.7490°N, 87.9770°W)
Time: 14:25:44
(UTC-06:00)

Daily predictions for brighter satellites

Satellite Brightness Start Highest point End
(mag) Time Altitude Azimuth Time Altitude Azimuth Time Altitude Azimuth
ATLAS 5 CENTAUR R/B 4.3 17:18:35 10° N 17:19:42 11° NNE 17:20:49 10° NNE
IDEFIX/ARIANE 42P 2.8 17:16:40 10° S 17:21:53 80° WSW 17:27:09 10° NNW
Lacrosse 5 rocket 1.1 17:19:34 10° NW 17:23:21 81° NE 17:27:18 10° SE
Cosmos 44 Rocket 3.6 17:19:45 10° SW 17:24:53 74° NW 17:29:56 10° NNE
Aureole 2 Rocket 3.2 17:23:53 10° S 17:27:25 39° ESE 17:31:14 10° NE
MSX 3.8 17:25:06 10° SSE 17:30:49 84° ENE 17:36:35 10° NNW
BREEZE-M DEB (TANK) 3.4 17:28:57 10° SSW 17:31:05 23° SE 17:33:03 10° E
Cosmos 372 Rocket 3.9 17:26:04 10° NNW 17:31:10 69° ENE 17:36:14 10° SSE
USA 116 3.4 17:30:14 10° N 17:33:23 71° WNW 17:36:28 10° SSW
OTV 4 3.6 17:33:40 10° SW 17:34:25 11° SSW 17:35:10 10° S
Cosmos 1626 3.6 17:32:10 10° SE 17:34:49 19° E 17:37:28 10° NE
Timation 1 Rocket 4.5 17:28:57 10° NNW 17:34:53 55° ENE 17:40:46 10° SE
Cosmos 2219 Rocket 2.6 17:29:45 10° SW 17:35:22 67° WNW 17:40:59 10° NNE
Cosmos 1707 Rocket 4.4 17:32:06 10° NNE 17:35:48 27° ENE 17:39:28 10° SE
Cosmos 540 Rocket 3.4 17:32:12 10° SSW 17:37:22 78° ESE 17:42:33 10° NNE
COSMO-SKYMED 1 3.0 17:33:16 10° NNE 17:37:25 42° E 17:41:32 10° S
Cosmos 1328 3.8 17:33:43 10° S 17:37:40 89° E 17:41:38 10° N
YAOGAN 1 2.9 17:33:22 10° S 17:37:40 71° WSW 17:42:01 10° NNW
Cosmos 2333 Rocket 2.3 17:32:28 10° SSW 17:38:07 81° WNW 17:43:49 10° NNE
BREEZE M DEB (TANK) 1.3 17:35:46 10° WNW 17:38:58 65° NNE 17:40:58 11° ESE
Cosmos 304 Rocket 4.3 17:34:52 10° S 17:39:19 39° ESE 17:43:47 10° NE
USA 215 3.5 17:39:01 10° ESE 17:45:18 51° NNE 17:51:35 10° NW
Cosmos 2151 2.9 17:41:43 10° S 17:45:55 83° E 17:50:08 10° N
CZ-4C R/B 4.4 17:43:16 10° NNW 17:46:38 14° NNE 17:50:10 10° NE
Cosmos 2278 Rocket 2.6 17:41:15 10° NNW 17:46:55 71° WSW 17:52:33 10° SSE
CZ-4 R/B 3.2 17:43:57 10° SSW 17:47:31 35° W 17:51:08 10° NNW
Cosmos 1666 Rocket 4.5 17:44:15 10° SE 17:47:54 27° E 17:51:35 10° NNE
Cosmos 1726 2.5 17:44:33 10° NNW 17:48:18 68° W 17:52:03 10° S
Cosmos 1455 3.2 17:46:59 10° NNE 17:50:12 25° ENE 17:53:25 10° SE
Resurs 01 Rocket 3.0 17:49:19 10° ESE 17:52:10 18° ENE 17:55:08 10° NNE
Cosmos 1703 3.6 17:50:36 10° SSE 17:54:16 42° E 17:57:58 10° NNE
SJ-6B 3.7 17:51:17 10° SE 17:54:53 30° ENE 17:58:32 10° N
Lacrosse 5 3.7 17:52:21 10° NW 17:55:51 18° N 17:59:06 11° NE
Cosmos 1900 4.3 17:56:09 10° NNW 18:01:07 72° ENE 18:06:07 10° SE
Cosmos 2279 Rocket 4.0 17:57:29 10° N 18:03:44 89° E 18:09:59 10° S
Cosmos 1300 4.3 18:06:24 10° NNW 18:09:58 37° W 18:13:31 10° SSW
Cosmos 1151 Rocket 4.5 18:06:18 10° NNW 18:10:18 39° W 18:14:18 10° SSW
Cosmos 2237 Rocket 2.8 18:06:37 10° SW 18:12:08 57° WNW 18:17:43 10° NNE
Cosmos 2369 Rocket 3.5 18:10:56 10° N 18:14:57 19° NE 18:15:09 19° NE
Lacrosse 4 Rocket 1.9 18:13:41 10° NNW 18:17:28 36° NE 18:18:28 31° E
SL-16 R/B 2.1 18:14:07 10° SSW 18:19:45 76° ESE 18:24:59 12° NNE
CENTAUR R/B 4.1 18:14:40 10° W 18:20:09 29° NNW 18:26:15 10° NNE
Cosmos 44 4.5 18:15:57 10° WSW 18:20:53 42° NW 18:25:29 11° NNE
Cosmos 1340 Rocket 3.2 18:17:44 10° SSW 18:21:38 62° WNW 18:25:32 10° N
Cosmos 2242 Rocket 3.9 18:17:58 10° N 18:22:11 42° ENE 18:26:25 10° SSE
Cosmos 1484 Rocket 4.4 18:18:29 10° SSW 18:22:12 39° W 18:25:58 10° NNW
Nadezhda 4 Rocket 4.0 18:18:33 10° S 18:24:43 64° E 18:30:58 10° NNE
ALOS 2.6 18:20:57 10° SE 18:25:16 39° ENE 18:29:38 10° N
SKYMED 2 4.2 18:21:16 10° N 18:25:33 58° WNW 18:29:48 10° SSW
USA 229 DEB 4.0 18:19:40 10° S 18:26:06 45° ESE 18:29:43 25° ENE
Cosmos 1805 Rocket 3.6 18:21:39 10° S 18:26:07 81° W 18:30:36 10° N
DMSP B5D1-3 4.5 18:20:59 10° NNE 18:26:07 87° W 18:31:13 10° SSW
USA 229 4.0 18:19:46 10° S 18:26:12 45° ESE 18:29:46 25° ENE
Cosmos 1184 Rocket 2.8 18:24:03 10° S 18:27:19 55° E 18:27:44 51° ENE
Spot 2 Rocket 3.8 18:22:43 10° SE 18:27:23 40° ENE 18:32:05 10° N
Cosmos 2297 4.1 18:25:08 10° NNW 18:30:48 66° WSW 18:36:28 10° SSE
Meteor 1-28 Rocket 3.7 18:30:36 10° N 18:34:16 59° WNW 18:37:56 10° SSW
Cosmos 2058 4.5 18:31:31 10° SW 18:35:18 35° WNW 18:39:06 10° N
Cosmos 1869 3.3 18:31:43 10° N 18:35:42 55° E 18:39:39 10° SSE
Iridium 4 Rocket 3.1 18:32:36 10° SSE 18:36:55 50° E 18:38:17 36° NE
Cosmos 1461 3.2 18:35:10 10° SW 18:39:18 62° NW 18:41:08 30° NNE
Sich 1 3.0 18:36:48 10° S 18:41:15 86° W 18:45:42 10° N
Cosmos 1538 Rocket 4.1 18:37:10 10° SSW 18:42:29 82° WNW 18:46:59 15° NNE
Cosmos 1092 Rocket 3.9 18:39:50 10° S 18:46:06 68° E 18:52:25 10° NNE
Cosmos 1633 Rocket 3.1 18:45:48 10° SSW 18:50:12 78° W 18:53:52 15° N
Cosmos 923 Rocket 4.0 18:45:13 10° S 18:50:16 54° ESE 18:50:56 50° ENE
FENGYUN 3A 3.5 18:45:11 10° SSE 18:50:30 69° ENE 18:55:52 10° N
Abrixas 4.0 18:48:51 10° W 18:50:53 32° NW 18:50:53 32° NW
BREEZE-M DEB (TANK) 3.6 18:53:06 10° W 18:54:14 23° WNW 18:54:14 23° WNW
Cosmos 1356 Rocket 4.2 18:52:14 10° SSW 18:56:06 47° WNW 18:59:17 14° N
Cosmos 1680 Rocket 3.9 18:52:10 10° S 18:56:19 43° SE 18:56:19 43° SE
SL-19 R/B 4.3 18:52:35 10° SSE 18:58:27 87° WSW 19:04:06 10° NNW
FREGAT/IRIS 4.1 18:57:05 10° SSW 18:59:57 37° W 19:02:51 10° NNW
Aureole 1 Rocket 3.9 18:55:29 10° SSW 19:00:58 89° ESE 19:07:42 12° NNE
Lacrosse 5 rocket 4.3 19:00:18 10° W 19:02:05 13° WSW 19:03:55 10° SSW
ATLAS 5 CENTAUR R/B 3.7 19:01:49 10° NNW 19:05:21 23° NNE 19:05:21 23° NNE
Cosmos 1626 4.1 19:06:43 10° SW 19:09:59 28° WNW 19:12:55 12° NNW
Cosmos 2195 Rocket 4.3 19:04:15 10° S 19:10:17 68° E 19:13:16 32° NNE
BREEZE-M DEB (TANK) 4.3 18:58:41 10° W 19:15:09 57° N 19:16:12 50° NE
Cosmos 773 Rocket 4.5 19:15:17 10° SW 19:20:22 57° WNW 19:22:21 35° N
Cosmos 1943 Rocket 4.0 19:19:30 10° N 19:21:01 17° N 19:21:01 17° N
Cosmos 1603 3.5 19:18:48 10° SSW 19:24:25 88° WNW 19:24:34 85° N
USA 215 3.6 19:24:58 30° SSE 19:28:14 59° SW 19:34:42 10° NW
Resurs 01 Rocket 2.4 19:26:51 36° SSW 19:28:16 50° W 19:32:36 10° NNW
ATLAS 3B R/B 4.3 19:27:29 10° NNW 19:31:30 20° NNE 19:31:30 20° NNE
CZ-4C R/B 3.9 19:31:34 10° NNW 19:35:48 27° NNE 19:35:48 27° NNE
Cosmos 1655 Rocket 4.4 19:32:50 10° S 19:37:30 52° S 19:37:30 52° S
Lacrosse 5 3.9 19:36:15 10° NW 19:38:19 19° NNW 19:38:19 19° NNW
Lacrosse 4 Rocket 3.9 19:52:51 10° WNW 19:54:54 19° W 19:54:54 19° W
Cosmos 2369 Rocket 3.5 19:53:59 10° NNW 19:56:59 33° NNW 19:56:59 33° NNW
SL-16 R/B 4.4 20:00:26 10° W 20:04:30 20° NW 20:06:55 16° NNW
USA 229 4.5 20:10:37 10° WSW 20:17:10 45° NW 20:17:17 45° NW
